| time (UTC) | temp F | wind direction | speed MPH | gust MPH | rain 1hr in | rain 24hr in | rain mn in | humidity % | barometer mb |
| 20260510064503 | 53 | 189 | 2.0 | 5.0 | 0.00 | 0.00 | 0.00 | 58 | 1015.1 |
| 20260510063003 | 52 | 171 | 1.0 | 7.0 | 0.00 | 0.00 | 0.00 | 62 | 1015.6 |
| 20260510061504 | 50 | 148 | 1.0 | 5.0 | 0.00 | 0.00 | 0.00 | 68 | 1015.6 |
| 20260510060003 | 48 | 202 | 0.0 | 6.0 | 0.00 | 0.00 | 0.00 | 72 | 1015.6 |
| 20260510054504 | 46 | 194 | 1.0 | 5.0 | 0.00 | 0.00 | 0.00 | 80 | 1015.6 |
| 20260510053004 | 43 | 175 | 1.0 | 5.0 | 0.00 | 0.00 | 0.00 | 86 | 1015.7 |
| 20260510051503 | 41 | 160 | 2.0 | 3.0 | 0.00 | 0.00 | 0.00 | 94 | 1015.8 |
| 20260510050004 | 39 | 155 | 1.0 | 2.0 | 0.00 | 0.00 | 0.00 | 95 | 1015.9 |
| 20260510043004 | 33 | 155 | 2.0 | 2.0 | 0.00 | 0.00 | 0.00 | 95 | 1016.1 |
| 20260510041504 | 32 | 155 | 1.0 | 3.0 | 0.00 | 0.00 | 0.00 | 96 | 1016.1 |
| 20260510040004 | 29 | 155 | 2.0 | 3.0 | 0.00 | 0.00 | 0.00 | 96 | 1016.3 |
| 20260510034503 | 28 | 155 | 0.0 | 0.0 | 0.00 | 0.00 | 0.00 | 95 | 1016.3 |
| 20260510033005 | 27 | 155 | 0.0 | 0.0 | 0.00 | 0.00 | 0.00 | 95 | 1016.6 |
| 20260510030004 | 27 | 155 | 0.0 | 0.0 | 0.00 | 0.00 | 0.00 | 95 | 1016.9 |
| 20260510024504 | 28 | 155 | 0.0 | 0.0 | 0.00 | 0.00 | 0.00 | 95 | 1017.1 |
| 20260510020004 | 28 | 155 | 0.0 | 0.0 | 0.00 | 0.00 | 0.00 | 94 | 1017.5 |
| 20260510013003 | 28 | 155 | 1.0 | 3.0 | 0.00 | 0.00 | 0.00 | 94 | 1017.8 |
| 20260510011504 | 29 | 155 | 2.0 | 3.0 | 0.00 | 0.00 | 0.00 | 94 | 1018.0 |
| 20260510010005 | 29 | 155 | 2.0 | 3.0 | 0.00 | 0.00 | 0.00 | 94 | 1018.0 |
| 20260510004504 | 29 | 155 | 3.0 | 5.0 | 0.00 | 0.00 | 0.00 | 94 | 1018.2 |
| 20260510003004 | 29 | 150 | 1.0 | 3.0 | 0.00 | 0.00 | 0.00 | 94 | 1018.2 |
| 20260510001504 | 30 | 150 | 2.0 | 3.0 | 0.00 | 0.00 | 0.00 | 94 | 1018.5 |
| 20260509234503 | 30 | 150 | 3.0 | 3.0 | 0.00 | 0.00 | 0.00 | 94 | 1018.7 |
| 20260509230003 | 31 | 107 | 0.0 | 0.0 | 0.00 | 0.00 | 0.00 | 93 | 1019.0 |
| 20260509223003 | 32 | 107 | 0.0 | 0.0 | 0.00 | 0.00 | 0.00 | 93 | 1019.5 |
| 20260509221503 | 33 | 107 | 0.0 | 0.0 | 0.00 | 0.00 | 0.00 | 93 | 1019.5 |
| 20260509220005 | 33 | 107 | 0.0 | 0.0 | 0.00 | 0.00 | 0.00 | 92 | 1019.5 |
| 20260509214503 | 34 | 107 | 0.0 | 0.0 | 0.00 | 0.00 | 0.00 | 92 | 1019.7 |
| 20260509213003 | 34 | 107 | 0.0 | 0.0 | 0.00 | 0.00 | 0.00 | 92 | 1019.7 |
| 20260509211504 | 35 | 107 | 0.0 | 0.0 | 0.00 | 0.00 | 0.00 | 92 | 1019.7 |
| 20260509210003 | 36 | 107 | 0.0 | 0.0 | 0.00 | 0.00 | 0.00 | 91 | 1019.6 |
| 20260509204504 | 37 | 107 | 0.0 | 0.0 | 0.00 | 0.00 | 0.00 | 90 | 1019.7 |
| 20260509203005 | 37 | 107 | 0.0 | 0.0 | 0.00 | 0.00 | 0.00 | 90 | 1019.8 |
| 20260509201504 | 38 | 104 | 0.0 | 0.0 | 0.00 | 0.00 | 0.00 | 89 | 1019.8 |
| 20260509200004 | 39 | 104 | 0.0 | 2.0 | 0.00 | 0.00 | 0.00 | 89 | 1019.9 |
| 20260509194504 | 40 | 104 | 0.0 | 0.0 | 0.00 | 0.00 | 0.00 | 87 | 1019.9 |
| 20260509193004 | 42 | 104 | 0.0 | 0.0 | 0.00 | 0.00 | 0.00 | 86 | 1019.9 |
| 20260509191503 | 43 | 104 | 0.0 | 0.0 | 0.00 | 0.00 | 0.00 | 84 | 1019.8 |
| 20260509190005 | 45 | 104 | 0.0 | 0.0 | 0.00 | 0.00 | 0.00 | 81 | 1019.8 |
| 20260509184503 | 47 | 104 | 0.0 | 2.0 | 0.00 | 0.00 | 0.00 | 78 | 1019.8 |
| 20260509183004 | 49 | 104 | 1.0 | 2.0 | 0.00 | 0.00 | 0.00 | 73 | 1019.5 |
| 20260509181504 | 51 | 104 | 0.0 | 3.0 | 0.00 | 0.00 | 0.00 | 69 | 1019.5 |
| 20260509180004 | 52 | 104 | 2.0 | 6.0 | 0.00 | 0.00 | 0.00 | 67 | 1019.5 |
| 20260509171504 | 54 | 61 | 4.0 | 8.0 | 0.00 | 0.00 | 0.00 | 57 | 1019.5 |
| 20260509164504 | 56 | 68 | 3.0 | 9.0 | 0.00 | 0.00 | 0.00 | 53 | 1019.8 |
| 20260509163003 | 56 | 77 | 2.0 | 9.0 | 0.00 | 0.00 | 0.00 | 50 | 1020.0 |
| 20260509161503 | 56 | 54 | 5.0 | 9.0 | 0.00 | 0.00 | 0.00 | 48 | 1020.0 |
| 20260509160003 | 56 | 23 | 6.0 | 9.0 | 0.00 | 0.00 | 0.00 | 47 | 1020.2 |
| 20260509151504 | 57 | 44 | 4.0 | 10.0 | 0.00 | 0.00 | 0.00 | 37 | 1020.6 |
| 20260509150004 | 57 | 66 | 7.0 | 13.0 | 0.00 | 0.00 | 0.00 | 36 | 1020.8 |
| 20260509144504 | 57 | 58 | 6.0 | 12.0 | 0.00 | 0.00 | 0.00 | 32 | 1021.1 |
| 20260509143004 | 57 | 61 | 9.0 | 12.0 | 0.00 | 0.00 | 0.00 | 33 | 1021.1 |
| 20260509141503 | 58 | 45 | 7.0 | 12.0 | 0.00 | 0.00 | 0.00 | 33 | 1021.1 |
| 20260509140004 | 58 | 49 | 6.0 | 12.0 | 0.00 | 0.00 | 0.00 | 30 | 1021.4 |
| 20260509133004 | 58 | 51 | 7.0 | 14.0 | 0.00 | 0.00 | 0.00 | 28 | 1021.6 |
| 20260509131504 | 58 | 47 | 9.0 | 15.0 | 0.00 | 0.00 | 0.00 | 30 | 1022.0 |
| 20260509130004 | 58 | 45 | 7.0 | 13.0 | 0.00 | 0.00 | 0.00 | 33 | 1022.1 |
| 20260509124503 | 58 | 15 | 8.0 | 15.0 | 0.00 | 0.00 | 0.00 | 29 | 1022.1 |
| 20260509123003 | 58 | 45 | 3.0 | 16.0 | 0.00 | 0.00 | 0.00 | 33 | 1022.2 |
| 20260509121504 | 59 | 45 | 7.0 | 14.0 | 0.00 | 0.00 | 0.00 | 32 | 1022.2 |
| 20260509120004 | 60 | 62 | 10.0 | 14.0 | 0.00 | 0.00 | 0.00 | 34 | 1022.3 |
| 20260509114503 | 59 | 46 | 7.0 | 14.0 | 0.00 | 0.00 | 0.00 | 32 | 1022.4 |
| 20260509113004 | 59 | 56 | 10.0 | 15.0 | 0.00 | 0.00 | 0.00 | 35 | 1022.5 |
| 20260509110004 | 59 | 38 | 5.0 | 14.0 | 0.00 | 0.00 | 0.00 | 36 | 1022.6 |
| 20260509104504 | 59 | 48 | 5.0 | 13.0 | 0.00 | 0.00 | 0.00 | 35 | 1022.6 |
| 20260509103004 | 59 | 22 | 8.0 | 14.0 | 0.00 | 0.00 | 0.00 | 33 | 1022.6 |
| 20260509100004 | 59 | 27 | 4.0 | 10.0 | 0.00 | 0.00 | 0.00 | 41 | 1022.7 |
| 20260509094503 | 59 | 24 | 6.0 | 10.0 | 0.00 | 0.00 | 0.00 | 45 | 1022.6 |
| 20260509093004 | 58 | 68 | 5.0 | 9.0 | 0.00 | 0.00 | 0.00 | 46 | 1023.0 |
| 20260509091503 | 57 | 42 | 7.0 | 9.0 | 0.00 | 0.00 | 0.00 | 44 | 1023.0 |
| 20260509090004 | 58 | 66 | 3.0 | 9.0 | 0.00 | 0.00 | 0.00 | 50 | 1023.0 |
| 20260509084504 | 57 | 21 | 6.0 | 9.0 | 0.00 | 0.00 | 0.00 | 52 | 1023.0 |
| 20260509083003 | 57 | 69 | 3.0 | 9.0 | 0.00 | 0.00 | 0.00 | 52 | 1023.3 |
| 20260509074503 | 55 | 55 | 2.0 | 8.0 | 0.00 | 0.00 | 0.00 | 56 | 1023.3 |
| 20260509073004 | 54 | 26 | 1.0 | 8.0 | 0.00 | 0.00 | 0.00 | 62 | 1023.3 |
| 20260509071504 | 53 | 51 | 4.0 | 9.0 | 0.00 | 0.00 | 0.00 | 63 | 1023.5 |
| 20260509070003 | 53 | 31 | 2.0 | 8.0 | 0.00 | 0.00 | 0.00 | 66 | 1023.6 |